Time,TemperatureF,DewpointF,PressureIn,WindDirection,WindDirectionDegrees,WindSpeedMPH,WindSpeedGustMPH,Humidity,HourlyPrecipIn,Conditions,Clouds,dailyrainin,SolarRadiationWatts/m^2,SoftwareType,DateUTC
2013-04-20 00:00:00,25.0,14.0,-100.00,NW,315,10.0,-999.0,61,-99.99,,,-99.99,0.000000,,2013-04-20 05:00:00,
2013-04-20 00:43:00,25.0,14.0,-100.00,NW,315,10.0,-999.0,61,-99.99,,,-99.99,0.000000,,2013-04-20 05:43:00,
2013-04-20 00:52:00,25.0,14.0,-100.00,NW,315,10.0,-999.0,61,-99.99,,,-99.99,0.000000,,2013-04-20 05:52:00,
2013-04-20 01:00:00,25.0,13.0,-100.00,NW,315,10.0,-999.0,62,-99.99,,,-99.99,0.000000,,2013-04-20 06:00:00,
2013-04-20 01:42:00,25.0,13.0,-100.00,NW,315,10.0,-999.0,62,-99.99,,,-99.99,0.000000,,2013-04-20 06:42:00,
2013-04-20 01:52:00,25.0,13.0,-100.00,NW,315,10.0,-999.0,62,-99.99,,,-99.99,0.000000,,2013-04-20 06:52:00,
2013-04-20 02:00:00,24.0,14.0,-100.00,NW,315,9.0,-999.0,66,-99.99,,,-99.99,0.000000,,2013-04-20 07:00:00,
2013-04-20 02:42:00,24.0,14.0,-100.00,NW,315,9.0,-999.0,66,-99.99,,,-99.99,0.000000,,2013-04-20 07:42:00,
2013-04-20 02:52:00,24.0,14.0,-100.00,NW,315,9.0,-999.0,66,-99.99,,,-99.99,0.000000,,2013-04-20 07:52:00,
2013-04-20 04:00:00,24.0,17.0,-100.00,NW,315,7.0,-999.0,72,-99.99,,,-99.99,0.000000,,2013-04-20 09:00:00,
2013-04-20 04:43:00,24.0,17.0,-100.00,NW,315,7.0,-999.0,72,-99.99,,,-99.99,0.000000,,2013-04-20 09:43:00,
2013-04-20 04:53:00,24.0,17.0,-100.00,NW,315,7.0,-999.0,72,-99.99,,,-99.99,0.000000,,2013-04-20 09:53:00,
2013-04-20 05:00:00,23.0,16.0,-100.00,NW,315,6.0,-999.0,74,-99.99,,,-99.99,0.000000,,2013-04-20 10:00:00,
2013-04-20 05:42:00,23.0,16.0,-100.00,NW,315,6.0,-999.0,74,-99.99,,,-99.99,0.000000,,2013-04-20 10:42:00,
2013-04-20 05:53:00,23.0,16.0,-100.00,NW,315,6.0,-999.0,74,-99.99,,,-99.99,0.000000,,2013-04-20 10:53:00,
2013-04-20 06:00:00,23.0,16.0,-100.00,NW,315,6.0,-999.0,76,-99.99,,,-99.99,1.160000,,2013-04-20 11:00:00,
2013-04-20 06:42:00,23.0,16.0,-100.00,NW,315,6.0,-999.0,76,-99.99,,,-99.99,1.160000,,2013-04-20 11:42:00,
2013-04-20 06:53:00,23.0,16.0,-100.00,NW,315,6.0,-999.0,76,-99.99,,,-99.99,1.160000,,2013-04-20 11:53:00,
2013-04-20 07:00:00,23.0,16.0,-100.00,NW,315,6.0,-999.0,75,-99.99,,,-99.99,27.840000,,2013-04-20 12:00:00,
2013-04-20 07:42:00,23.0,16.0,-100.00,NW,315,6.0,-999.0,75,-99.99,,,-99.99,27.840000,,2013-04-20 12:42:00,
2013-04-20 07:52:00,23.0,16.0,-100.00,NW,315,6.0,-999.0,75,-99.99,,,-99.99,27.840000,,2013-04-20 12:52:00,
2013-04-20 08:00:00,24.0,16.0,-100.00,NW,315,8.0,-999.0,69,-99.99,,,-99.99,242.440002,,2013-04-20 13:00:00,
2013-04-20 08:42:00,24.0,16.0,-100.00,NW,315,8.0,-999.0,69,-99.99,,,-99.99,242.440002,,2013-04-20 13:42:00,
2013-04-20 08:52:00,24.0,16.0,-100.00,NW,315,8.0,-999.0,69,-99.99,,,-99.99,242.440002,,2013-04-20 13:52:00,
2013-04-20 09:00:00,26.0,14.0,-100.00,NW,315,8.0,-999.0,61,-99.99,,,-99.99,438.480011,,2013-04-20 14:00:00,
2013-04-20 09:42:00,26.0,14.0,-100.00,NW,315,8.0,-999.0,61,-99.99,,,-99.99,438.480011,,2013-04-20 14:42:00,
2013-04-20 09:52:00,26.0,14.0,-100.00,NW,315,8.0,-999.0,61,-99.99,,,-99.99,438.480011,,2013-04-20 14:52:00,
2013-04-20 10:00:00,27.0,15.0,-100.00,NW,315,8.0,-999.0,57,-99.99,,,-99.99,615.960022,,2013-04-20 15:00:00,
2013-04-20 10:43:00,27.0,15.0,-100.00,NW,315,8.0,-999.0,57,-99.99,,,-99.99,615.960022,,2013-04-20 15:43:00,
2013-04-20 10:53:00,27.0,15.0,-100.00,NW,315,8.0,-999.0,57,-99.99,,,-99.99,615.960022,,2013-04-20 15:53:00,
2013-04-20 11:00:00,29.0,15.0,-100.00,NW,315,8.0,-999.0,54,-99.99,,,-99.99,756.320007,,2013-04-20 16:00:00,
2013-04-20 11:42:00,29.0,15.0,-100.00,NW,315,8.0,-999.0,54,-99.99,,,-99.99,756.320007,,2013-04-20 16:42:00,
2013-04-20 11:53:00,29.0,15.0,-100.00,NW,315,8.0,-999.0,54,-99.99,,,-99.99,756.320007,,2013-04-20 16:53:00,
2013-04-20 12:00:00,31.0,15.0,-100.00,WNW,292,6.0,-999.0,51,-99.99,,,-99.99,846.799988,,2013-04-20 17:00:00,
2013-04-20 12:42:00,31.0,15.0,-100.00,WNW,292,6.0,-999.0,51,-99.99,,,-99.99,846.799988,,2013-04-20 17:42:00,
2013-04-20 12:52:00,31.0,15.0,-100.00,WNW,292,6.0,-999.0,51,-99.99,,,-99.99,846.799988,,2013-04-20 17:52:00,
2013-04-20 13:00:00,33.0,14.0,-100.00,West,270,5.0,-999.0,45,-99.99,,,-99.99,887.400024,,2013-04-20 18:00:00,
2013-04-20 13:42:00,33.0,14.0,-100.00,West,270,5.0,-999.0,45,-99.99,,,-99.99,887.400024,,2013-04-20 18:42:00,
2013-04-20 13:52:00,33.0,14.0,-100.00,West,270,5.0,-999.0,45,-99.99,,,-99.99,887.400024,,2013-04-20 18:52:00,
2013-04-20 14:00:00,35.0,13.0,-100.00,WSW,247,5.0,-999.0,39,-99.99,,,-99.99,875.799988,,2013-04-20 19:00:00,
2013-04-20 14:42:00,35.0,13.0,-100.00,WSW,247,5.0,-999.0,39,-99.99,,,-99.99,875.799988,,2013-04-20 19:42:00,
2013-04-20 14:52:00,35.0,13.0,-100.00,WSW,247,5.0,-999.0,39,-99.99,,,-99.99,875.799988,,2013-04-20 19:52:00,
2013-04-20 15:00:00,37.0,11.0,-100.00,West,270,6.0,-999.0,34,-99.99,,,-99.99,808.520020,,2013-04-20 20:00:00,
2013-04-20 15:42:00,37.0,11.0,-100.00,West,270,6.0,-999.0,34,-99.99,,,-99.99,808.520020,,2013-04-20 20:42:00,
2013-04-20 15:52:00,37.0,11.0,-100.00,West,270,6.0,-999.0,34,-99.99,,,-99.99,808.520020,,2013-04-20 20:52:00,
2013-04-20 16:00:00,38.0,11.0,-100.00,WNW,292,4.0,-999.0,31,-99.99,,,-99.99,696.000000,,2013-04-20 21:00:00,
2013-04-20 16:43:00,38.0,11.0,-100.00,WNW,292,4.0,-999.0,31,-99.99,,,-99.99,696.000000,,2013-04-20 21:43:00,
2013-04-20 16:53:00,38.0,11.0,-100.00,WNW,292,4.0,-999.0,31,-99.99,,,-99.99,696.000000,,2013-04-20 21:53:00,
2013-04-20 17:00:00,39.0,10.0,-100.00,West,270,4.0,-999.0,29,-99.99,,,-99.99,525.479980,,2013-04-20 22:00:00,
2013-04-20 17:42:00,39.0,10.0,-100.00,West,270,4.0,-999.0,29,-99.99,,,-99.99,525.479980,,2013-04-20 22:42:00,
2013-04-20 17:53:00,39.0,10.0,-100.00,West,270,4.0,-999.0,29,-99.99,,,-99.99,525.479980,,2013-04-20 22:53:00,
2013-04-20 18:00:00,40.0,11.0,-100.00,West,270,3.0,-999.0,30,-99.99,,,-99.99,356.119995,,2013-04-20 23:00:00,
2013-04-20 18:42:00,40.0,11.0,-100.00,West,270,3.0,-999.0,30,-99.99,,,-99.99,356.119995,,2013-04-20 23:42:00,
2013-04-20 18:53:00,40.0,11.0,-100.00,West,270,3.0,-999.0,30,-99.99,,,-99.99,356.119995,,2013-04-20 23:53:00,
2013-04-20 20:00:00,32.0,21.0,-100.00,SSE,157,3.0,-999.0,64,-99.99,,,-99.99,19.719999,,2013-04-21 01:00:00,
2013-04-20 20:42:00,32.0,21.0,-100.00,SSE,157,3.0,-999.0,64,-99.99,,,-99.99,19.719999,,2013-04-21 01:42:00,
2013-04-20 20:52:00,32.0,21.0,-100.00,SSE,157,3.0,-999.0,64,-99.99,,,-99.99,19.719999,,2013-04-21 01:52:00,
2013-04-20 21:00:00,30.0,22.0,-100.00,SSE,157,2.0,-999.0,72,-99.99,,,-99.99,0.000000,,2013-04-21 02:00:00,
2013-04-20 21:42:00,30.0,22.0,-100.00,SSE,157,2.0,-999.0,72,-99.99,,,-99.99,0.000000,,2013-04-21 02:42:00,
2013-04-20 21:52:00,30.0,22.0,-100.00,SSE,157,2.0,-999.0,72,-99.99,,,-99.99,0.000000,,2013-04-21 02:52:00,
2013-04-20 22:00:00,29.0,22.0,-100.00,SSE,157,1.0,-999.0,77,-99.99,,,-99.99,0.000000,,2013-04-21 03:00:00,
2013-04-20 22:42:00,29.0,22.0,-100.00,SSE,157,1.0,-999.0,77,-99.99,,,-99.99,0.000000,,2013-04-21 03:42:00,
2013-04-20 22:52:00,29.0,22.0,-100.00,SSE,157,1.0,-999.0,77,-99.99,,,-99.99,0.000000,,2013-04-21 03:52:00,
2013-04-20 23:00:00,28.0,23.0,-100.00,South,180,1.0,-999.0,82,-99.99,,,-99.99,0.000000,,2013-04-21 04:00:00,
2013-04-20 23:43:00,28.0,23.0,-100.00,South,180,1.0,-999.0,82,-99.99,,,-99.99,0.000000,,2013-04-21 04:43:00,
2013-04-20 23:53:00,28.0,23.0,-100.00,South,180,1.0,-999.0,82,-99.99,,,-99.99,0.000000,,2013-04-21 04:53:00,